www.pogodaiklimat.ru

Погода и климат >> Архив погоды >> Россия >> Камчатский край >> Большерецк


ПОГОДА в Большерецке

  • Прогноз погоды в Большерецке
  • Монитор погоды в Большерецке
  • Климат города

АРХИВ ПОГОДЫ в Большерецке

Время (UTC), дата Ветер
(напр.,м/с)
 
Видим.   Явления Облачность Т
(С)
Тd
(С)
f
(%)
Тe
(С)
Тes
(С)
Комфортность P
(гПа)
Po
(гПа)
Тmin
(С)
Tmax
(С)
R
(мм)
R24
(мм)
S
(см)
03 14.10 СЗ 6
{10}
20 км в посл. час ливневой дождь 9/9 600 м
[Cb cap]
+4.7 +1.6 80 -0 -0 1008.5 1004.8
06 14.10 З 3 20 км {ливн. осадки} 9/9 600 м
[Cb cap]
+4.2 -2.3 63 +1 +1 1009.4 1005.7
09 14.10 З 3 20 км {ливн. осадки} 5/5 600 м
[Cb cap]
+1.4 +1.1 98 -3 -3 1010.5 1006.7 +6.1 0.4
12 14.10 З 2 20 км в посл. час ливневой дождь 6/6 600 м
[Cb cap]
+0.5 -0.2 95 -3 -3 1010.9 1007.2
15 14.10 Ю 2 20 км в посл. час ливневой снег 5/5 600 м
[Cb cap]
+0.2 +0.2 100 -4 -4 1011.1 1007.3
18 14.10 З 4 10 км слабый ливневой снег 10/10 600 м
[Cb cap]
+1.7 +0.3 90 -3 -3 1011.1 1007.3
21 14.10 В 1 20 км {ливн. осадки} 9/9 600 м
[Cb cap]
+0.8 +0.7 99 -1 -1 1011.7 1007.9 +0.2 5 1
00 15.10 ЮЗ 5 20 км {ливн. осадки} 8/5 600 м
[Cb cap Ci fib]
+4.8 +1.4 79 0 +1 1012.0 1008.2
03 15.10 З 5-11
{11}
20 км слабый ливневой дождь 10/10 600 м
[Cb cap]
+4.2 +1.9 85 -1 -1 1011.5 1007.8
06 15.10 СЗ 3
{11}
20 км слабый ливневой дождь 9/9 600 м
[Cb cap]
+1.9 +1.4 96 -3 -3 1011.8 1008.1
09 15.10 ЮЗ 1 20 км {ливн. осадки} 4/4 600 м
[Cb calv]
+0.7 +0.3 97 -1 -1 1011.6 1007.8 +6.6 3
12 15.10 ЮВ 2 20 км {ливн. осадки} 4/4 600 м
[Cb calv]
+0.7 +0.4 98 -3 -3 1010.9 1007.1
15 15.10 ЮВ 2 10 км слабый ливневой снег 10/10 600 м
[Cb cap]
+0.1 +0.1 100 -4 -4 1009.9 1006.1
18 15.10 Ю 2 20 км в посл. час ливневой снег 5/5 600 м
[Cb cap]
-0.5 -0.5 100 -5 -5 1008.5 1004.8
21 15.10 ЮВ 1 20 км 8/8 600 м
[Cb cap]
-0.2 -0.2 100 -3 -3 1008.1 1004.3 -1.3 2 1
00 16.10 Ю 2 20 км {ливн. осадки} 8/8 600 м
[Cb cap]
+1.1 +1.1 100 -3 -2 1007.8 1004.0
03 16.10 ЮЗ 3 20 км 8/8 600 м
[Cb cap]
+4.2 +2.3 87 +1 +1 1006.3 1002.6
06 16.10 С 1 20 км {ливн. осадки} 8/8 600 м
[Cb cap]
+1.4 +0.9 96 -1 -1 1006.5 1002.8
09 16.10 В 2 20 км 6/6 600 м
[Sc]
-0.7 -0.7 100 -5 -5 1007.3 1003.6 +5.7 0.6
12 16.10 З 4 20 км {ливн. осадки} 8/8 600 м
[Cb cap]
+0.9 +0.3 96 -5 -5 1007.4 1003.6
15 16.10 З 2 20 км 8/8 600 м
[Cb cap]
+0.5 +0.2 98 -3 -3 1006.9 1003.1
18 16.10 В 1 20 км слабый ливневой снег 8/8 600 м
[Cb cap]
+0.2 +0.1 99 -2 -2 1007.3 1003.6
21 16.10 Ю 2 20 км слабый ливневой снег 9/6 600 м
[Cb cap Ci]
-0.1 -0.1 100 -4 -4 1008.4 1004.6 -0.7 3 1
00 17.10 З 5-10
{12}
20 км слабый ливневой снег 9/6 600 м
[Cb cap Ci]
+4.3 +0.5 76 -0 0 1008.7 1005.0
03 17.10 ЮЗ 3-10
{13}
20 км слабый ливневой снег 9/9 50 м
[Cb cap]
+2.7 +0.6 86 -1 -1 1009.1 1005.4
06 17.10 З 3
{11}
20 км в посл. час ливневой снег 9/8 600 м
[Cb cap Ci]
+2.9 -0.3 79 -1 -1 1010.3 1006.5
09 17.10 СВ 1 20 км 4/4 600 м
[Sc]
+0.7 -0.8 90 -1 -1 1011.8 1008.0 +5.1 0.6
12 17.10 СЗ 4 20 км слабый ливневой снег 6/6 600 м
[Cb cap]
+1.7 -0.7 84 -3 -3 1013.0 1009.2
15 17.10 ЮВ 3 20 км в посл. час ливневой снег 4/4 600 м
[Cb cap]
-0.8 -0.8 100 -6 -6 1013.5 1009.7
18 17.10 ЮВ 3 20 км {ливн. осадки} 4/4 600 м
[Cb calv]
-0.1 -0.1 100 -5 -5 1014.4 1010.6
21 17.10 ЮВ 2 10 км слабый ливневой снег 10/10 600 м
[Cb cap]
+0.1 +0.1 100 -4 -4 1015.8 1012.0 -0.8 4 3
00 18.10 Ю 3 10 км слабый ливневой снег 9/9 600 м
[Cb cap]
+0.8 +0.7 99 -4 -4 1016.1 1012.3
03 18.10 ЮВ 2 50 км {ливн. осадки} 10/5 600 м
[Cb calv Ci]
+3.7 +1.4 85 +1 +2 1015.3 1011.6
06 18.10 СВ 1 50 км {ливн. осадки} 10/4 600 м
[Cb calv Ci]
+3.1 +0.1 81 +2 +2 1015.0 1011.2
09 18.10 С 2 20 км 10/4 600 м
[Cb calv Ci fib]
-0.4 -1.3 94 -4 -4 1014.1 1010.3 +4.1 0.5
12 18.10 СВ 2 20 км 10/0
[Ci fib]
-1.4 -3.0 89 -5 -5 1012.9 1009.1
15 18.10 СВ 4 20 км 10/6 600 м
[Cb calv Ci fib]
+1.1 -3.7 70 -4 -4 1010.8 1007.0
18 18.10 С 3 20 км 10/6 600 м
[Cb calv Ac und]
+0.2 -4.3 72 -4 -4 1010.1 1006.3
21 18.10 С 2 50 км 8/6 600 м
[Cb calv Ac trans]
-0.3 -3.8 77 -4 -4 1010.3 1006.5 -1.6 <0.5
00 19.10 С 3 50 км 8/8 600 м
[Sc]
+5.4 -3.8 51 +3 +3 1010.0 1006.3
03 19.10 С 5 50 км 8/8 600 м
[Sc]
+5.3 -2.4 58 +1 +2 1010.1 1006.4
06 19.10 СЗ 3 50 км 9/9 600 м
[Sc]
+4.1 -1.5 67 +1 +1 1011.0 1007.3
09 19.10 СЗ 4 20 км 10/10 600 м
[Sc]
+2.5 -1.3 76 -2 -2 1012.4 1008.7 +6.6
12 19.10 С 2 20 км 4/4 600 м
[Sc]
+0.3 -2.5 81 -3 -3 1014.3 1010.5
15 19.10 СЗ 4 20 км 8/8 600 м
[Sc]
+1.1 -1.1 85 -4 -4 1016.1 1012.3
18 19.10 С 1 20 км 3/3 600 м
[Sc]
+0.5 -1.5 86 -1 -1 1017.7 1013.9
21 19.10 Ю 1 50 км 4/4 600 м
[Sc]
-1.7 -2.0 98 -4 -4 1019.8 1015.9 -2.2
00 20.10 СЗ 4 50 км 3/3 600 м
[Cu hum]
+6.0 0.0 65 +3 +4 1021.0 1017.3
03 20.10 СЗ 6-11
{11}
50 км 5/5 600 м
[Cu hum]
+6.2 -1.4 58 +2 +3 1021.8 1018.0
06 20.10 СЗ 4
{11}
50 км ясно +3.4 -2.5 65 -1 -1 1023.6 1019.8
09 20.10 СЗ 3 20 км ясно -0.9 -3.3 84 -6 -6 1025.8 1022.0 +6.7
12 20.10 СЗ 3 20 км ясно -3.0 -5.2 85 -8 -8 1027.5 1023.6
15 20.10 С 3 20 км ясно -4.1 -6.2 85 -9 -9 1028.8 1024.8
18 20.10 С 2 20 км ясно -5.7 -6.8 92 -10 -10 1030.0 1026.1
21 20.10 СВ 2 50 км 4/4 600 м
[Sc]
-6.1 -6.8 95 -11 -11 1031.2 1027.3 -6.7
00 21.10 СЗ 1 50 км 1/1 600 м
[Sc]
+2.3 -3.7 65 +1 +4 1032.2 1028.4

 

Местоположение метеостанции Большерецк (Камчатский край, Россия): широта 52.83 долгота 156.30 высота над уровнем моря 30 м.

В архиве по умолчанию представлена погода в Большерецке за последнюю неделю. Архивные данные за месяц целиком и за предыдущие месяцы, начиная с января 2011 года, Вы можете получить, выбрав интересующий диапазон дат из раскрывающегося списка и нажав кнопку "Ввод!".

Внимание! Время в таблицах - всемирное. Для получения местного времени необходимо прибавить поправку, которая в Большерецке равна 12 ч.

Смотрите также архив погоды в соседних городах и на ближайших метеорологических станциях:

Погода в Начиках (Камчатский край, Россия) (99 км)
Погода в Сосновке (Камчатский край, Россия) (137 км)
Погода в Петропавловск-Камч. 2 (Камчатский край, Россия) (150 км)
Погода в Озерной (Камчатский край, Россия) (150 км)
Погода в Петропавловск-Камчатском (Камчатский край, Россия) (155 км)
Погода в Водопадной (Камчатский край, Россия) (161 км)
Погода в Петропавловском Маяке (Камчатский край, Россия) (161 км)
Погода в Соболево (Камчатский край, Россия) (166 км)
Погода в Пущино (Камчатский край, Россия) (188 км)
Погода на Мысе Лопатка (Камчатский край, Россия) (219 км)

Пояснения к столбцам:

Ветер - указаны скорость ветра в м/с - средняя за 10 мин, порывы в срок и между сроками (в фигурных скобках) и направление, откуда дует ветер: С - северный, СВ - северо-восточный, В - восточный, ЮВ - юго-восточный, Ю - южный, ЮЗ - юго-западный, З - западный, СЗ - северо-западный.
Видимость - горизонтальная дальность видимости в метрах или километрах. При видимости от 1 до 10 км при отсутствии осадков обычно наблюдается дымка, при ухудшении видимости до 1 км и менее - туман. В сухую погоду видимость может ухудшаться дымом, пылью или мглою.
Явления - указаны атмосферные явления, наблюдавшиеся в срок или в последний час перед сроком; фигурными скобками обозначены явления, наблюдавшиеся между сроками (за 1-3 часа до срока); квадратными скобками обозначены град или гололедные отложения с указанием их диаметра в мм.
Облачность - указаны через наклонную черту общая и нижняя облачность в баллах и высота нижней границы облаков в метрах; квадратными скобками обозначены формы облаков: Ci - перистые, Cs - перисто-слоистые, Cc - перисто-кучевые, Ac - высококучевые, As - высокослоистые, Sc - слоисто-кучевые, Ns - слоисто-дождевые, Cu - кучевые, Cb - кучево-дождевые. Подробнее классификацию облаков см. в Атласе облаков (PDF).
T - Температура воздуха - температура, измеренная на высоте 2 м над землей.
Td - Температура точки росы - температура, при понижении до которой содержащийся в воздухе водяной пар достигнет насыщения.
f - Относительная влажность воздуха - влажноcть воздуха, измеренная на высоте 2 м над землей.
Te - Эффективная температура - температура, которую ощущает одетый по сезону человек в тени. Характеристика душности погоды. При расчете учитывается влияние влажности воздуха и скорости ветра на теплоощущения человека.
Tes - Эффективная температура на солнце - температура, которую ощущает человек, с поправкой на солнечный нагрев. Характеристика знойности погоды. Зависит от высоты солнца над горизонтом, облачности и скорости ветра. Ночью, в пасмурную погоду, а также при ветре 12 м/с и более поправка равна нулю.
P - Атмосферное давление - приведенное к уровню моря атмосферное давление.
Po - Атмосферное давление - измеренное на уровне метеостанции атмосферное давление.
Tmin - Минимальная температура - минимум температуры воздуха на высоте 2 м над землей.
Tmax - Максимальная температура - максимум температуры воздуха на высоте 2 м над землей.
R - Количество осадков - Количество выпавших осадков за период времени, мм. При наведении курсора мыши на число - период времени, за который выпало указанное количество осадков.
R24 - Количество осадков - Количество выпавших осадков за 24 часа, мм.
S - Снежный покров - Высота снежного покрова, см. При наведении курсора мыши на число - состояние снежного покрова и степень покрытия местности в баллах.